{"data":{"norad_id":51104,"epoch":"2026-09-20T04:35:47.302944Z","epoch_age_seconds":75100,"freshness":"FRESH","line1":"1 51104U 22005A   26263.19151971  .00014642  00000+0  65193-3 0  9996","line2":"2 51104  53.1994 132.5939 0001670  93.7957 266.3232 15.21695950258282","mean_motion":15.2169595,"eccentricity":0.000167,"inclination_deg":53.1994,"raan_deg":132.5939,"arg_perigee_deg":93.7957,"mean_anomaly_deg":266.3232,"bstar":0.00065193,"rev_number":25828,"period_min":94.631256658073,"perigee_km":499.57603797918,"apogee_km":501.87357782302,"semimajor_km":6878.8618079011,"source":"CELESTRAK","updated_at":"2026-09-20T09:00:39.583785Z"}}